N638 KLAX-KPHX

Flight info

Callsign N638
Flight time 1h 0m
Altitude 41000
Route DOTSS2 CNERY BLH HYDRR1
Aircraft B736/M-SDE2E3FGHIRWXY/LB1

Departure

Time 2026-04-26 03:14
Airport Los Angeles International Airport (KLAX)

Arrival

Time 2026-04-26 04:14
Airport Phoenix Sky Harbor International Airport (KPHX)
Time Latitude Longitude Altitude Speed Heading
2026-04-26 02:37 33.94138 -118.38972 121 ft 0 kts 209°
2026-04-26 03:02 33.94141 -118.38970 116 ft 3 kts 209°
2026-04-26 03:02 33.94157 -118.38959 123 ft 3 kts 209°
2026-04-26 03:02 33.94174 -118.38948 120 ft 3 kts 209°
2026-04-26 03:02 33.94190 -118.38937 120 ft 2 kts 209°
2026-04-26 03:03 33.94191 -118.38936 119 ft 0 kts 209°
2026-04-26 03:08 33.94188 -118.38950 120 ft 3 kts 262°
2026-04-26 03:08 33.94193 -118.38995 123 ft 8 kts 273°
2026-04-26 03:08 33.94193 -118.39037 124 ft 7 kts 278°
2026-04-26 03:09 33.94202 -118.39128 124 ft 6 kts 264°
2026-04-26 03:09 33.94200 -118.39134 124 ft 1 kts 238°
2026-04-26 03:09 33.94180 -118.39123 123 ft 6 kts 143°
2026-04-26 03:09 33.94132 -118.39067 123 ft 14 kts 159°
2026-04-26 03:10 33.94019 -118.39012 122 ft 20 kts 144°
2026-04-26 03:10 33.93994 -118.38871 124 ft 20 kts 83°
2026-04-26 03:10 33.94015 -118.38671 122 ft 27 kts 83°
2026-04-26 03:10 33.94033 -118.38485 124 ft 20 kts 82°
2026-04-26 03:11 33.94051 -118.38318 123 ft 20 kts 82°
2026-04-26 03:11 33.94067 -118.38155 124 ft 19 kts 83°
2026-04-26 03:11 33.94076 -118.38040 124 ft 0 kts 99°
2026-04-26 03:12 33.94074 -118.38032 124 ft 5 kts 106°
2026-04-26 03:12 33.94011 -118.37998 123 ft 16 kts 191°
2026-04-26 03:12 33.93983 -118.38042 124 ft 5 kts 262°
2026-04-26 03:12 33.93964 -118.38232 124 ft 44 kts 263°
2026-04-26 03:13 33.93911 -118.38746 123 ft 79 kts 263°
2026-04-26 03:13 33.93832 -118.39518 125 ft 106 kts 263°
2026-04-26 03:13 33.93732 -118.40489 125 ft 127 kts 262°
2026-04-26 03:13 33.93638 -118.41571 227 ft 128 kts 262°
2026-04-26 03:14 33.93530 -118.42800 611 ft 167 kts 262°
2026-04-26 03:14 33.93392 -118.44333 1407 ft 199 kts 262°
2026-04-26 03:14 33.93175 -118.46154 1950 ft 239 kts 261°
2026-04-26 03:14 33.92588 -118.48047 3014 ft 245 kts 232°
2026-04-26 03:15 33.91336 -118.49520 3792 ft 260 kts 225°
2026-04-26 03:15 33.89975 -118.51054 4405 ft 273 kts 227°
2026-04-26 03:15 33.88654 -118.52703 4887 ft 273 kts 230°
2026-04-26 03:15 33.87367 -118.54390 4996 ft 277 kts 226°
2026-04-26 03:16 33.85708 -118.55590 5014 ft 284 kts 200°
2026-04-26 03:16 33.83738 -118.55870 5012 ft 289 kts 177°
2026-04-26 03:16 33.81808 -118.55407 5272 ft 276 kts 170°
2026-04-26 03:16 33.79944 -118.54877 5539 ft 277 kts 170°
2026-04-26 03:17 33.78069 -118.54350 5800 ft 275 kts 171°
2026-04-26 03:17 33.76214 -118.53840 6038 ft 279 kts 171°
2026-04-26 03:17 33.74319 -118.53326 5997 ft 277 kts 171°
2026-04-26 03:17 33.72451 -118.52786 5989 ft 274 kts 167°
2026-04-26 03:18 33.70709 -118.51962 6639 ft 275 kts 151°
2026-04-26 03:18 33.69299 -118.50354 7299 ft 289 kts 123°
2026-04-26 03:18 33.68484 -118.48112 8050 ft 297 kts 111°
2026-04-26 03:18 33.67800 -118.45753 8763 ft 301 kts 111°
2026-04-26 03:19 33.67118 -118.43362 9495 ft 304 kts 111°
2026-04-26 03:19 33.66422 -118.40958 10201 ft 306 kts 112°
2026-04-26 03:19 33.65708 -118.38534 10885 ft 309 kts 112°
2026-04-26 03:19 33.65231 -118.36921 11335 ft 313 kts 113°
2026-04-26 03:20 33.64516 -118.34384 11874 ft 329 kts 106°
2026-04-26 03:20 33.64333 -118.31602 12580 ft 339 kts 92°
2026-04-26 03:20 33.64352 -118.28752 13359 ft 345 kts 92°
2026-04-26 03:20 33.64388 -118.25850 14083 ft 350 kts 92°
2026-04-26 03:21 33.64418 -118.22910 14789 ft 354 kts 92°
2026-04-26 03:21 33.64440 -118.19938 15513 ft 358 kts 92°
2026-04-26 03:21 33.64453 -118.16939 16219 ft 362 kts 93°
2026-04-26 03:21 33.64459 -118.13905 16920 ft 366 kts 93°
2026-04-26 03:22 33.64461 -118.10827 17642 ft 371 kts 93°
2026-04-26 03:22 33.64460 -118.07719 18341 ft 375 kts 94°
2026-04-26 03:22 33.64458 -118.04573 18977 ft 378 kts 95°
2026-04-26 03:22 33.64454 -118.01400 19580 ft 383 kts 95°
2026-04-26 03:23 33.64448 -117.98176 20123 ft 390 kts 95°
2026-04-26 03:23 33.64442 -117.94896 20697 ft 395 kts 95°
2026-04-26 03:23 33.64436 -117.91574 21268 ft 401 kts 96°
2026-04-26 03:23 33.64430 -117.88208 21834 ft 407 kts 96°
2026-04-26 03:24 33.64422 -117.84788 22393 ft 413 kts 96°
2026-04-26 03:24 33.64413 -117.81324 22953 ft 419 kts 96°
2026-04-26 03:24 33.64402 -117.77804 23525 ft 425 kts 96°
2026-04-26 03:24 33.64386 -117.74233 23975 ft 430 kts 96°
2026-04-26 03:25 33.64368 -117.70636 24542 ft 432 kts 96°
2026-04-26 03:25 33.64351 -117.67013 25100 ft 435 kts 96°
2026-04-26 03:25 33.64334 -117.63369 25621 ft 439 kts 96°
2026-04-26 03:25 33.64315 -117.59688 26120 ft 443 kts 96°
2026-04-26 03:26 33.64295 -117.56068 26606 ft 447 kts 96°
2026-04-26 03:26 33.64273 -117.52238 27129 ft 451 kts 96°
2026-04-26 03:26 33.64250 -117.48460 27630 ft 455 kts 96°
2026-04-26 03:26 33.64227 -117.44689 28073 ft 459 kts 97°
2026-04-26 03:27 33.64201 -117.40843 28532 ft 464 kts 97°
2026-04-26 03:27 33.64175 -117.36955 28999 ft 467 kts 97°
2026-04-26 03:27 33.64146 -117.32985 29413 ft 471 kts 97°
2026-04-26 03:27 33.64118 -117.29103 29928 ft 473 kts 97°
2026-04-26 03:28 33.64087 -117.25149 30336 ft 476 kts 97°
2026-04-26 03:28 33.64055 -117.21170 30654 ft 479 kts 97°
2026-04-26 03:28 33.64021 -117.17154 30986 ft 483 kts 97°
2026-04-26 03:28 33.63985 -117.13107 31348 ft 486 kts 97°
2026-04-26 03:29 33.63948 -117.09047 31705 ft 488 kts 97°
2026-04-26 03:29 33.63910 -117.04956 32037 ft 491 kts 97°
2026-04-26 03:29 33.63870 -117.00844 32352 ft 495 kts 97°
2026-04-26 03:29 33.63828 -116.96703 32594 ft 499 kts 97°
2026-04-26 03:30 33.63736 -116.88276 32990 ft 508 kts 97°
2026-04-26 03:30 33.63690 -116.84040 33342 ft 507 kts 98°
2026-04-26 03:30 33.63645 -116.79819 33716 ft 506 kts 98°
2026-04-26 03:31 33.63596 -116.75590 33970 ft 509 kts 98°
2026-04-26 03:31 33.63543 -116.71327 34129 ft 513 kts 97°
2026-04-26 03:31 33.63490 -116.67034 34320 ft 515 kts 98°
2026-04-26 03:31 33.63434 -116.62741 34536 ft 516 kts 97°
2026-04-26 03:32 33.63377 -116.58430 34760 ft 517 kts 97°
2026-04-26 03:32 33.63319 -116.54111 34959 ft 518 kts 97°
2026-04-26 03:32 33.63261 -116.49799 35241 ft 516 kts 97°
2026-04-26 03:32 33.63202 -116.45490 35493 ft 517 kts 97°
2026-04-26 03:33 33.63138 -116.41169 35606 ft 519 kts 97°
2026-04-26 03:33 33.63071 -116.36821 35638 ft 523 kts 97°
2026-04-26 03:33 33.63005 -116.32477 35964 ft 518 kts 97°
2026-04-26 03:33 33.62941 -116.28181 36415 ft 512 kts 97°
2026-04-26 03:34 33.62876 -116.23930 36871 ft 507 kts 97°
2026-04-26 03:34 33.62810 -116.19726 37307 ft 502 kts 97°
2026-04-26 03:34 33.62743 -116.15564 37762 ft 496 kts 97°
2026-04-26 03:34 33.62674 -116.11458 38211 ft 489 kts 97°
2026-04-26 03:35 33.62604 -116.07392 38547 ft 486 kts 97°
2026-04-26 03:35 33.62529 -116.03321 38581 ft 490 kts 97°
2026-04-26 03:35 33.62369 -115.95074 38604 ft 498 kts 97°
2026-04-26 03:36 33.62209 -115.86705 38670 ft 505 kts 96°
2026-04-26 03:36 33.62044 -115.78224 38737 ft 512 kts 97°
2026-04-26 03:37 33.61872 -115.69646 38786 ft 518 kts 96°
2026-04-26 03:37 33.61691 -115.60959 38845 ft 522 kts 96°
2026-04-26 03:38 33.61505 -115.52280 38940 ft 527 kts 96°
2026-04-26 03:38 33.61309 -115.43461 39064 ft 530 kts 96°
2026-04-26 03:39 33.61209 -115.39037 39185 ft 530 kts 96°
2026-04-26 03:39 33.61108 -115.34622 39325 ft 529 kts 96°
2026-04-26 03:39 33.61006 -115.30220 39487 ft 528 kts 97°
2026-04-26 03:39 33.60900 -115.25812 39548 ft 529 kts 98°
2026-04-26 03:40 33.60683 -115.16969 39694 ft 531 kts 97°
2026-04-26 03:40 33.60573 -115.12551 39799 ft 530 kts 97°
2026-04-26 03:40 33.60462 -115.08129 39926 ft 530 kts 97°
2026-04-26 03:41 33.60349 -115.03718 40035 ft 529 kts 97°
2026-04-26 03:41 33.60235 -114.99304 40079 ft 530 kts 97°
2026-04-26 03:41 33.59998 -114.90443 40130 ft 533 kts 97°
2026-04-26 03:42 33.59756 -114.81518 40046 ft 537 kts 97°
2026-04-26 03:42 33.59609 -114.77022 39548 ft 539 kts 100°
2026-04-26 03:42 33.59119 -114.72620 39134 ft 526 kts 109°
2026-04-26 03:43 33.58355 -114.68360 38751 ft 520 kts 110°
2026-04-26 03:43 33.57542 -114.64146 38329 ft 518 kts 111°
2026-04-26 03:43 33.56716 -114.59945 37839 ft 517 kts 111°
2026-04-26 03:43 33.55898 -114.55751 37369 ft 517 kts 111°
2026-04-26 03:44 33.55094 -114.51549 36901 ft 516 kts 111°
2026-04-26 03:44 33.54304 -114.47362 36444 ft 516 kts 111°
2026-04-26 03:44 33.53522 -114.43166 35997 ft 515 kts 111°
2026-04-26 03:44 33.52743 -114.38969 35562 ft 515 kts 111°
2026-04-26 03:45 33.51967 -114.34781 35136 ft 515 kts 111°
2026-04-26 03:45 33.51189 -114.30596 34714 ft 514 kts 111°
2026-04-26 03:45 33.50409 -114.26416 34292 ft 514 kts 111°
2026-04-26 03:45 33.49627 -114.22236 33858 ft 514 kts 112°
2026-04-26 03:46 33.48841 -114.18048 33320 ft 515 kts 111°
2026-04-26 03:46 33.48053 -114.13863 32776 ft 516 kts 111°
2026-04-26 03:46 33.47260 -114.09663 32210 ft 516 kts 111°
2026-04-26 03:47 33.45677 -114.01283 31174 ft 516 kts 111°
2026-04-26 03:47 33.44884 -113.97094 30669 ft 517 kts 111°
2026-04-26 03:47 33.44087 -113.92898 30176 ft 516 kts 111°
2026-04-26 03:47 33.43291 -113.88709 29668 ft 516 kts 111°
2026-04-26 03:48 33.42493 -113.84523 29098 ft 516 kts 110°
2026-04-26 03:48 33.41693 -113.80335 28556 ft 516 kts 110°
2026-04-26 03:48 33.40902 -113.76203 28003 ft 516 kts 110°
2026-04-26 03:48 33.40098 -113.72009 27481 ft 517 kts 110°
2026-04-26 03:49 33.39292 -113.67820 26888 ft 519 kts 110°
2026-04-26 03:49 33.38477 -113.63596 26374 ft 524 kts 110°
2026-04-26 03:49 33.37616 -113.59361 25810 ft 522 kts 111°
2026-04-26 03:49 33.36804 -113.55133 25306 ft 522 kts 109°
2026-04-26 03:50 33.36028 -113.50900 24745 ft 520 kts 109°
2026-04-26 03:50 33.35230 -113.46695 24182 ft 516 kts 109°
2026-04-26 03:50 33.34428 -113.42548 23531 ft 508 kts 109°
2026-04-26 03:50 33.33631 -113.38470 22897 ft 500 kts 109°
2026-04-26 03:51 33.32843 -113.34452 22231 ft 493 kts 109°
2026-04-26 03:51 33.32064 -113.30492 21584 ft 486 kts 109°
2026-04-26 03:51 33.31296 -113.26581 20953 ft 480 kts 109°
2026-04-26 03:51 33.30537 -113.22719 20328 ft 474 kts 109°
2026-04-26 03:52 33.29786 -113.18904 19724 ft 468 kts 109°
2026-04-26 03:52 33.29044 -113.15136 19123 ft 463 kts 108°
2026-04-26 03:52 33.28311 -113.11415 18544 ft 458 kts 108°
2026-04-26 03:52 33.27591 -113.07720 17937 ft 454 kts 106°
2026-04-26 03:53 33.27303 -113.03963 17393 ft 453 kts 92°
2026-04-26 03:53 33.27453 -113.00269 17164 ft 439 kts 90°
2026-04-26 03:53 33.27626 -112.96685 16903 ft 426 kts 90°
2026-04-26 03:53 33.27768 -112.93193 16636 ft 415 kts 91°
2026-04-26 03:54 33.27873 -112.89794 16380 ft 404 kts 92°
2026-04-26 03:54 33.27956 -112.86474 16127 ft 395 kts 92°
2026-04-26 03:54 33.28032 -112.83231 15873 ft 386 kts 92°
2026-04-26 03:54 33.28167 -112.80056 15622 ft 380 kts 89°
2026-04-26 03:55 33.28440 -112.76944 15364 ft 373 kts 86°
2026-04-26 03:55 33.28754 -112.73895 15118 ft 366 kts 86°
2026-04-26 03:55 33.29065 -112.70901 14862 ft 359 kts 86°
2026-04-26 03:55 33.29361 -112.67963 14635 ft 354 kts 87°
2026-04-26 03:56 33.29647 -112.65061 14390 ft 350 kts 87°
2026-04-26 03:56 33.29924 -112.62190 14156 ft 347 kts 87°
2026-04-26 03:56 33.30194 -112.59336 13903 ft 344 kts 87°
2026-04-26 03:56 33.30458 -112.56497 13670 ft 343 kts 87°
2026-04-26 03:57 33.30720 -112.53690 13411 ft 337 kts 87°
2026-04-26 03:57 33.30978 -112.50917 13079 ft 334 kts 88°
2026-04-26 03:57 33.31230 -112.48199 12755 ft 332 kts 88°
2026-04-26 03:57 33.31483 -112.45463 12424 ft 330 kts 87°
2026-04-26 03:58 33.31733 -112.42754 12121 ft 327 kts 87°
2026-04-26 03:58 33.31979 -112.40064 11793 ft 324 kts 87°
2026-04-26 03:58 33.32223 -112.37397 11485 ft 321 kts 88°
2026-04-26 03:58 33.32465 -112.34745 11150 ft 319 kts 88°
2026-04-26 03:59 33.32703 -112.32117 10829 ft 317 kts 87°
2026-04-26 03:59 33.32942 -112.29506 10509 ft 315 kts 88°
2026-04-26 03:59 33.33178 -112.26906 10196 ft 313 kts 88°
2026-04-26 03:59 33.33410 -112.24358 10069 ft 303 kts 88°
2026-04-26 04:00 33.33634 -112.21878 9801 ft 300 kts 88°
2026-04-26 04:00 33.33857 -112.19400 9509 ft 297 kts 88°
2026-04-26 04:00 33.34075 -112.16987 9371 ft 288 kts 88°
2026-04-26 04:00 33.34286 -112.14639 9240 ft 280 kts 88°
2026-04-26 04:01 33.34490 -112.12363 9096 ft 269 kts 88°
2026-04-26 04:01 33.34686 -112.10193 9025 ft 257 kts 88°
2026-04-26 04:01 33.34812 -112.08080 8773 ft 254 kts 95°
2026-04-26 04:01 33.34781 -112.05980 8539 ft 252 kts 96°
2026-04-26 04:02 33.34728 -112.03884 8260 ft 253 kts 96°
2026-04-26 04:02 33.34682 -112.01753 7848 ft 260 kts 95°
2026-04-26 04:02 33.34645 -111.99568 7437 ft 265 kts 95°
2026-04-26 04:02 33.34612 -111.97348 7043 ft 269 kts 95°
2026-04-26 04:03 33.34581 -111.95093 6679 ft 272 kts 94°
2026-04-26 04:03 33.34549 -111.92876 6625 ft 261 kts 95°
2026-04-26 04:03 33.34499 -111.90752 6580 ft 251 kts 95°
2026-04-26 04:03 33.34442 -111.88664 6263 ft 254 kts 95°
2026-04-26 04:04 33.34390 -111.86537 5883 ft 258 kts 94°
2026-04-26 04:04 33.34363 -111.84370 5498 ft 262 kts 92°
2026-04-26 04:04 33.34362 -111.82190 5284 ft 258 kts 92°
2026-04-26 04:04 33.34370 -111.80076 5146 ft 251 kts 92°
2026-04-26 04:05 33.34400 -111.78024 5057 ft 242 kts 89°
2026-04-26 04:05 33.34471 -111.76050 5004 ft 236 kts 88°
2026-04-26 04:05 33.34538 -111.74067 4744 ft 239 kts 88°
2026-04-26 04:05 33.34612 -111.72089 4503 ft 238 kts 88°
2026-04-26 04:06 33.34676 -111.70119 4257 ft 236 kts 88°
2026-04-26 04:06 33.34734 -111.68171 4093 ft 233 kts 88°
2026-04-26 04:06 33.34791 -111.66242 4054 ft 231 kts 86°
2026-04-26 04:06 33.35010 -111.65004 4031 ft 230 kts 65°
2026-04-26 04:07 33.35994 -111.63561 4054 ft 222 kts 31°
2026-04-26 04:07 33.37395 -111.63051 4043 ft 206 kts 356°
2026-04-26 04:07 33.38713 -111.63535 4058 ft 197 kts 332°
2026-04-26 04:07 33.39926 -111.64308 4048 ft 199 kts 330°
2026-04-26 04:08 33.41141 -111.65109 4035 ft 200 kts 329°
2026-04-26 04:08 33.42358 -111.65919 4035 ft 200 kts 327°
2026-04-26 04:08 33.43290 -111.67111 4025 ft 196 kts 291°
2026-04-26 04:08 33.43413 -111.68692 4025 ft 193 kts 256°
2026-04-26 04:09 33.43098 -111.70251 4032 ft 194 kts 253°
2026-04-26 04:09 33.42683 -111.71787 4035 ft 194 kts 254°
2026-04-26 04:09 33.42591 -111.73389 4048 ft 193 kts 271°
2026-04-26 04:09 33.42614 -111.74998 4047 ft 193 kts 270°
2026-04-26 04:10 33.42624 -111.76611 4035 ft 194 kts 270°
2026-04-26 04:10 33.42634 -111.78232 4037 ft 195 kts 270°
2026-04-26 04:10 33.42645 -111.79808 4028 ft 182 kts 269°
2026-04-26 04:10 33.42665 -111.81276 3899 ft 171 kts 270°
2026-04-26 04:11 33.42684 -111.82686 3739 ft 169 kts 270°
2026-04-26 04:11 33.42701 -111.84101 3496 ft 170 kts 270°
2026-04-26 04:11 33.42716 -111.85520 3162 ft 171 kts 270°
2026-04-26 04:11 33.42722 -111.86969 2694 ft 176 kts 271°
2026-04-26 04:12 33.42829 -111.88403 2388 ft 169 kts 275°
2026-04-26 04:12 33.42888 -111.89792 2058 ft 164 kts 270°
2026-04-26 04:12 33.42896 -111.91167 2163 ft 160 kts 271°
2026-04-26 04:12 33.42886 -111.92371 2045 ft 152 kts 269°
2026-04-26 04:13 33.42879 -111.93791 2025 ft 180 kts 271°
2026-04-26 04:13 33.42870 -111.95308 1922 ft 186 kts 269°
2026-04-26 04:13 33.42875 -111.96800 1737 ft 171 kts 270°
2026-04-26 04:13 33.42880 -111.98136 1553 ft 154 kts 269°
2026-04-26 04:14 33.42886 -111.99401 1290 ft 149 kts 269°
2026-04-26 04:14 33.42889 -112.00648 1143 ft 150 kts 270°
2026-04-26 04:14 33.42886 -112.01581 1130 ft 42 kts 270°
2026-04-26 04:14 33.42886 -112.01693 1129 ft 23 kts 270°
2026-04-26 04:15 33.42887 -112.01918 1125 ft 28 kts 271°
2026-04-26 04:15 33.42913 -112.02105 1114 ft 22 kts 294°
2026-04-26 04:15 33.42968 -112.02149 1118 ft 1 kts 25°
2026-04-26 04:15 33.42974 -112.02145 1123 ft 0 kts 30°
2026-04-26 04:16 33.42989 -112.02122 1118 ft 8 kts 65°
2026-04-26 04:17 33.42994 -112.02053 1124 ft 8 kts 88°
2026-04-26 04:17 33.42995 -112.01988 1126 ft 8 kts 89°
2026-04-26 04:17 33.42996 -112.01916 1124 ft 9 kts 90°
2026-04-26 04:17 33.42995 -112.01832 1125 ft 11 kts 89°
2026-04-26 04:18 33.42996 -112.01735 1124 ft 12 kts 89°
2026-04-26 04:18 33.43004 -112.01641 1120 ft 11 kts 72°
2026-04-26 04:18 33.43000 -112.01600 1117 ft 5 kts 111°
2026-04-26 04:18 33.42995 -112.01530 1125 ft 13 kts 87°
2026-04-26 04:19 33.42996 -112.01380 1120 ft 20 kts 91°
2026-04-26 04:19 33.42994 -112.01226 1121 ft 18 kts 93°
2026-04-26 04:19 33.42981 -112.01107 1118 ft 9 kts 121°
2026-04-26 04:19 33.42976 -112.01099 1120 ft 0 kts 130°
2026-04-26 04:21 33.42955 -112.01088 1121 ft 10 kts 162°
2026-04-26 04:21 33.42851 -112.01085 1124 ft 16 kts 182°
2026-04-26 04:21 33.42776 -112.01141 1125 ft 13 kts 255°
2026-04-26 04:22 33.42775 -112.01248 1125 ft 13 kts 270°
2026-04-26 04:22 33.42775 -112.01352 1124 ft 12 kts 270°
2026-04-26 04:22 33.42774 -112.01453 1124 ft 10 kts 268°
2026-04-26 04:22 33.42769 -112.01503 1122 ft 4 kts 272°
2026-04-26 04:23 33.42773 -112.01548 1118 ft 10 kts 276°
2026-04-26 04:23 33.42773 -112.01681 1124 ft 18 kts 268°
2026-04-26 04:23 33.42697 -112.01739 1119 ft 12 kts 181°
2026-04-26 04:23 33.42633 -112.01776 1120 ft 11 kts 258°
2026-04-26 04:24 33.42632 -112.01812 1123 ft 0 kts 272°